Regional Weather Roundup
Issued by NWS Newport/Morehead, NC

Current Version | Previous Version | Graphics & Text | Print | Product List | Glossary On
Versions: 1 2 3 4 5 6 7 8 9 10 11 12 13 14 15 16 17 18 19 20 21 22 23 24 25 26 27 28 29 30 31 32 33 34 35 36 37 38 39 40 41 42 43 44 45 46 47 48 49 50
000 ASUS42 KMHX 312222 RWRMHX WEATHER ROUNDUP FOR EASTERN NORTH CAROLINA NATIONAL WEATHER SERVICE NEWPORT/MOREHEAD CITY NC 500 PM EST SAT JAN 31 2015 NOTE: "FAIR" INDICATES FEW OR NO CLOUDS BELOW 12,000 FEET WITH NO SIGNIFICANT WEATHER AND/OR OBSTRUCTIONS TO VISIBILITY NCZ015>017-031-032-045>047-102-103-312300- NORTH COAST CITY SKY/WX TMP DP RH WIND PRES REMARKS EDENTON CLEAR 41 12 30 NW3 30.30R ELIZABETH CITY CLEAR 38 9 30 NW9 30.29S KITTY HAWK CLEAR 37 12 35 W7 30.27S MANTEO CLEAR 37 12 35 NW8 30.29S $$ NCZ045>047-081-094-103-104-312300- CENTRAL COAST CITY SKY/WX TMP DP RH WIND PRES REMARKS FRISCO CLEAR 38 14 37 NW6 30.30S SWANQUARTER NOT AVBL $$ NCZ095-097-098-100-101-312300- SOUTHERN COAST CITY SKY/WX TMP DP RH WIND PRES REMARKS BEAUFORT CLEAR 41 18 39 S7 30.32R CEDAR ISLAND NOT AVBL JACKSONVILLE CLEAR 46 10 23 NW5 30.31S PINEY ISLAND N/A N/A N/A N/A MISG 30.31S WILMINGTON CLEAR 48 10 21 W8 30.32S $$ NCZ011>013-027>030-043-044-078>080-089-090>093-098-312300- COASTAL PLAIN CITY SKY/WX TMP DP RH WIND PRES REMARKS AHOSKIE CLEAR 41 8 25 CALM 30.30R CLINTON CLEAR 48 12 23 W3 30.31S ELIZABETHTOWN CLEAR 49 7 18 CALM 30.31R GOLDSBORO CLEAR 46 10 22 CALM 30.29F GREENVILLE CLEAR 45 10 24 W3 30.31R HAVELOCK PTCLDY 45 10 24 N5 30.32S KENANSVILLE CLEAR 45 8 22 W3 30.33R KINSTON CLEAR 45 9 23 CALM 30.31S NEW BERN CLEAR 46 11 24 W7 30.32S RICHLANDS CLEAR 45 10 24 CALM 30.32S ROCKY MOUNT CLEAR 45 10 24 W6 30.30R WASHINGTON CLEAR 43 10 25 CALM 30.31R WHITEVILLE CLEAR 50 7 18 SW3 30.31F $$ AMZ130-135-150-152-154-156-158-170-250-252-270-ANZ085-086-088-633-658-670-312300- MARINE OBSERVATIONS STATION/POSITION TIME TEMP WIND PRES WAVE SWELL AIR SEA DIR/SP/G HT/PER HT/PER (UTC) (F) (DEG/KT/KT) (MB) (FT/S) (FT/S) CHESAPEAKE LIGHT 2200 35 310/ 18/ 20 1025.7 64 E VA BEACH 2200 36 48 310/ 25/ 29 1023.2 9/ 9 5/ 9 DUCK 2200 38 40 310/ 6/ 9 1024.6 2 E DUCK 2200 41 N/A 4/ 8 2/11 10 NE DUCK 2200 43 N/A 5/ 7 2/11 OREGON INLET 2200 37 40 280/ 8/ 12 1025.5 13E OREGON INLT 2200 45 N/A 7/10 2/11 HATTERAS CG 2200 39 40 320/ 7/ 9 1026.4 DIAMOND BUOY 2200 40 70 310/ 16/ 19 1025.7 4/ 8 3/ 8 17 S OCRACOKE NOT AVBL CAPE LOOKOUT 2200 41 230/ 3/ 4 1026.6 BEAUFORT LAB 2200 43 45 170/ 5/ 6 1025.5 27 SE WRIGHTSVLE NOT AVBL 5 SE WRIGHTSVLE 2200 46 51 200/ 6/ 6 1026.9 225 S CAPE HAT 2106 53 69 330/ 19/ 25 1025.5 9/11 5/11 41 SE CHARLESTON 2200 49 67 50/ 10/ 14 1027.1 4/ 7 3/ 7 $$

USA.gov is the U.S. government's official web portal to all federal, state and local government web resources and services.